| time (UTC) | temp C | wind direction | speed KPH | gust KPH | rain 1hr cm | rain 24hr cm | rain mn cm | humidity % | barometer mb |
| 20260508141557 | 6 | 310 | 9.7 | 19.3 | 0.03 | 1.98 | 0.33 | 97 | 1001.9 |
| 20260508140115 | 6 | 310 | 11.3 | 19.3 | 0.03 | 1.98 | 0.33 | 96 | 1002.2 |
| 20260508134554 | 7 | 314 | 8.0 | 17.7 | 0.00 | 1.96 | 0.30 | 96 | 1002.3 |
| 20260508133103 | 7 | 320 | 8.0 | 14.5 | 0.00 | 1.96 | 0.30 | 98 | 1002.3 |
| 20260508131556 | 7 | 329 | 6.4 | 14.5 | 0.03 | 1.96 | 0.30 | 97 | 1002.4 |
| 20260508130055 | 7 | 329 | 4.8 | 11.3 | 0.03 | 1.96 | 0.30 | 98 | 1002.2 |
| 20260508124559 | 7 | 341 | 3.2 | 12.9 | 0.03 | 1.96 | 0.30 | 95 | 1002.0 |
| 20260508123055 | 8 | 335 | 6.4 | 14.5 | 0.03 | 1.96 | 0.30 | 97 | 1001.9 |
| 20260508121552 | 8 | 330 | 6.4 | 11.3 | 0.00 | 1.93 | 0.28 | 98 | 1002.1 |
| 20260508120111 | 8 | 17 | 1.6 | 6.4 | 0.03 | 1.93 | 0.28 | 99 | 1002.1 |
| 20260508114602 | 8 | 14 | 1.6 | 4.8 | 0.03 | 1.93 | 0.28 | 99 | 1002.0 |
| 20260508113053 | 7 | 12 | 0.0 | 6.4 | 0.03 | 1.93 | 0.28 | 100 | 1002.1 |
| 20260508111556 | 7 | 15 | 1.6 | 4.8 | 0.03 | 1.93 | 0.28 | 100 | 1002.1 |
| 20260508104556 | 6 | 9 | 1.6 | 4.8 | 0.00 | 1.91 | 0.25 | 100 | 1001.9 |
| 20260508103057 | 5 | 2 | 0.0 | 3.2 | 0.00 | 1.91 | 0.25 | 100 | 1002.2 |
| 20260508101556 | 4 | 2 | 0.0 | 1.6 | 0.03 | 1.91 | 0.25 | 100 | 1001.9 |
| 20260508100128 | 4 | 2 | 1.6 | 3.2 | 0.03 | 1.91 | 0.25 | 99 | 1002.1 |
| 20260508094555 | 4 | 2 | 0.0 | 3.2 | 0.03 | 1.91 | 0.25 | 99 | 1001.9 |
| 20260508093055 | 4 | 0 | 0.0 | 3.2 | 0.03 | 1.91 | 0.25 | 99 | 1001.7 |
| 20260508091610 | 4 | 2 | 0.0 | 1.6 | 0.00 | 1.88 | 0.23 | 99 | 1001.5 |
| 20260508090055 | 4 | 0 | 0.0 | 3.2 | 0.03 | 1.88 | 0.23 | 99 | 1001.5 |
| 20260508084557 | 4 | 0 | 0.0 | 3.2 | 0.03 | 1.88 | 0.23 | 99 | 1001.6 |
| 20260508083056 | 5 | 2 | 1.6 | 4.8 | 0.03 | 1.88 | 0.23 | 99 | 1001.4 |
| 20260508081610 | 5 | 359 | 1.6 | 4.8 | 0.05 | 1.88 | 0.23 | 99 | 1001.5 |
| 20260508080052 | 5 | 357 | 1.6 | 4.8 | 0.03 | 1.85 | 0.20 | 99 | 1001.2 |
| 20260508074554 | 5 | 350 | 1.6 | 3.2 | 0.03 | 1.85 | 0.20 | 99 | 1001.4 |
| 20260508073052 | 5 | 0 | 0.0 | 3.2 | 0.05 | 1.85 | 0.20 | 99 | 1001.3 |
| 20260508071555 | 5 | 350 | 1.6 | 4.8 | 0.03 | 1.83 | 0.18 | 99 | 1001.6 |
| 20260508070051 | 5 | 346 | 1.6 | 4.8 | 0.03 | 1.83 | 0.18 | 99 | 1001.7 |
| 20260508064556 | 5 | 344 | 1.6 | 9.7 | 0.05 | 1.83 | 0.18 | 99 | 1001.7 |
| 20260508063056 | 6 | 329 | 3.2 | 11.3 | 0.03 | 1.80 | 0.15 | 98 | 1001.7 |
| 20260508061557 | 7 | 345 | 3.2 | 9.7 | 0.05 | 1.80 | 0.15 | 98 | 1001.5 |
| 20260508060108 | 7 | 0 | 0.0 | 8.0 | 0.05 | 1.80 | 0.15 | 99 | 1001.7 |
| 20260508054639 | 7 | 335 | 3.2 | 11.3 | 0.05 | 1.78 | 0.13 | 99 | 1001.7 |
| 20260508053054 | 7 | 345 | 1.6 | 9.7 | 0.05 | 1.78 | 0.13 | 99 | 1001.7 |
| 20260508051551 | 7 | 341 | 4.8 | 12.9 | 0.03 | 1.75 | 0.10 | 99 | 1001.8 |
| 20260508050054 | 8 | 321 | 6.4 | 12.9 | 0.05 | 1.75 | 0.10 | 99 | 1001.7 |
| 20260508044556 | 8 | 358 | 1.6 | 6.4 | 0.05 | 1.73 | 0.08 | 100 | 1001.7 |
| 20260508043058 | 7 | 345 | 1.6 | 6.4 | 0.05 | 1.73 | 0.08 | 99 | 1001.8 |
| 20260508041553 | 7 | 3 | 0.0 | 4.8 | 0.05 | 1.73 | 0.08 | 99 | 1001.8 |
| 20260508040056 | 7 | 3 | 0.0 | 3.2 | 0.05 | 1.70 | 0.05 | 99 | 1002.3 |
| 20260508034554 | 8 | 0 | 0.0 | 1.6 | 0.05 | 1.68 | 0.03 | 99 | 1002.0 |
| 20260508033053 | 8 | 0 | 0.0 | 1.6 | 0.05 | 1.68 | 0.03 | 99 | 1002.0 |
| 20260508031556 | 8 | 0 | 0.0 | 1.6 | 0.08 | 1.68 | 0.03 | 99 | 1002.1 |
| 20260508030104 | 8 | 0 | 0.0 | 3.2 | 0.08 | 1.65 | 0.00 | 99 | 1002.1 |
| 20260508024602 | 8 | 0 | 0.0 | 0.0 | 0.08 | 1.63 | 1.63 | 99 | 1002.4 |
| 20260508023052 | 8 | 0 | 0.0 | 1.6 | 0.08 | 1.63 | 1.63 | 99 | 1002.2 |
| 20260508021554 | 8 | 0 | 0.0 | 3.2 | 0.08 | 1.60 | 1.60 | 99 | 1002.2 |
| 20260508020104 | 8 | 3 | 1.6 | 6.4 | 0.08 | 1.57 | 1.57 | 99 | 1002.3 |
| 20260508014553 | 8 | 356 | 3.2 | 11.3 | 0.08 | 1.55 | 1.55 | 99 | 1002.3 |
| 20260508013053 | 8 | 339 | 4.8 | 16.1 | 0.08 | 1.52 | 1.52 | 99 | 1002.5 |
| 20260508011554 | 8 | 8 | 3.2 | 14.5 | 0.10 | 1.52 | 1.52 | 99 | 1002.3 |
| 20260508010053 | 9 | 323 | 6.4 | 19.3 | 0.13 | 1.47 | 1.47 | 98 | 1002.1 |
| 20260508004557 | 9 | 318 | 1.6 | 11.3 | 0.13 | 1.47 | 1.47 | 98 | 1002.1 |
| 20260508003056 | 10 | 333 | 4.8 | 9.7 | 0.13 | 1.45 | 1.45 | 99 | 1002.1 |
| 20260508001553 | 10 | 330 | 4.8 | 8.0 | 0.15 | 1.42 | 1.42 | 98 | 1002.3 |
| 20260508000051 | 10 | 286 | 0.0 | 9.7 | 0.13 | 1.37 | 1.37 | 98 | 1002.2 |
| 20260507234556 | 10 | 0 | 1.6 | 6.4 | 0.13 | 1.32 | 1.32 | 98 | 1002.2 |
| 20260507233052 | 10 | 187 | 0.0 | 4.8 | 0.15 | 1.32 | 1.32 | 98 | 1002.1 |
| 20260507231553 | 11 | 189 | 3.2 | 14.5 | 0.15 | 1.27 | 1.27 | 98 | 1002.1 |
| 20260507230050 | 11 | 237 | 6.4 | 12.9 | 0.18 | 1.24 | 1.24 | 97 | 1002.1 |
| 20260507224553 | 11 | 162 | 4.8 | 14.5 | 0.18 | 1.22 | 1.22 | 98 | 1001.8 |
| 20260507223056 | 12 | 233 | 4.8 | 14.5 | 0.20 | 1.17 | 1.17 | 97 | 1001.9 |
| 20260507221551 | 12 | 154 | 8.0 | 16.1 | 0.20 | 1.12 | 1.12 | 97 | 1001.6 |
| 20260507220055 | 12 | 152 | 9.7 | 16.1 | 0.20 | 1.07 | 1.07 | 98 | 1001.5 |
| 20260507214554 | 12 | 151 | 11.3 | 17.7 | 0.20 | 1.02 | 1.02 | 97 | 1001.3 |
| 20260507213053 | 12 | 148 | 3.2 | 12.9 | 0.23 | 0.97 | 0.97 | 98 | 1001.3 |
| 20260507211557 | 12 | 149 | 8.0 | 14.5 | 0.25 | 0.91 | 0.91 | 98 | 1001.4 |
| 20260507210103 | 12 | 158 | 6.4 | 14.5 | 0.25 | 0.86 | 0.86 | 98 | 1001.2 |
| 20260507204551 | 12 | 150 | 11.3 | 17.7 | 0.25 | 0.81 | 0.81 | 98 | 1001.4 |
| 20260507203101 | 12 | 170 | 8.0 | 17.7 | 0.25 | 0.74 | 0.74 | 98 | 1001.2 |
| 20260507201552 | 12 | 145 | 8.0 | 17.7 | 0.25 | 0.66 | 0.66 | 98 | 1001.4 |
| 20260507200053 | 12 | 140 | 8.0 | 24.1 | 0.25 | 0.61 | 0.61 | 98 | 1000.4 |
| 20260507194554 | 12 | 138 | 11.3 | 25.7 | 0.23 | 0.53 | 0.53 | 98 | 1000.6 |
| 20260507193049 | 12 | 140 | 9.7 | 20.9 | 0.25 | 0.48 | 0.48 | 99 | 1001.4 |
| 20260507191552 | 12 | 156 | 9.7 | 24.1 | 0.23 | 0.41 | 0.41 | 98 | 1001.9 |
| 20260507190052 | 12 | 117 | 12.9 | 25.7 | 0.23 | 0.36 | 0.36 | 98 | 1003.1 |
| 20260507184552 | 12 | 110 | 12.9 | 20.9 | 0.20 | 0.30 | 0.30 | 98 | 1003.4 |
| 20260507183055 | 12 | 131 | 11.3 | 20.9 | 0.18 | 0.23 | 0.23 | 98 | 1003.3 |
| 20260507181555 | 12 | 98 | 11.3 | 24.1 | 0.15 | 0.18 | 0.18 | 98 | 1004.1 |
| 20260507180058 | 12 | 153 | 14.5 | 27.4 | 0.13 | 0.13 | 0.13 | 98 | 1004.0 |
| 20260507174607 | 12 | 119 | 14.5 | 30.6 | 0.10 | 0.10 | 0.10 | 97 | 1004.3 |
| 20260507173054 | 12 | 158 | 17.7 | 30.6 | 0.05 | 0.05 | 0.05 | 97 | 1004.6 |
| 20260507171605 | 12 | 132 | 17.7 | 32.2 | 0.03 | 0.03 | 0.03 | 96 | 1004.5 |
| 20260507170053 | 13 | 121 | 20.9 | 46.7 | 0.00 | 0.00 | 0.00 | 94 | 1003.6 |
| 20260507164552 | 13 | 144 | 27.4 | 45.1 | 0.00 | 0.00 | 0.00 | 91 | 1003.5 |
| 20260507163100 | 14 | 148 | 27.4 | 49.9 | 0.00 | 0.00 | 0.00 | 89 | 1003.5 |
| 20260507161559 | 14 | 170 | 29.0 | 46.7 | 0.00 | 0.00 | 0.00 | 89 | 1003.9 |
| 20260507160055 | 15 | 165 | 27.4 | 54.7 | 0.00 | 0.00 | 0.00 | 88 | 1003.9 |
| 20260507154552 | 15 | 175 | 33.8 | 59.5 | 0.00 | 0.00 | 0.00 | 86 | 1004.3 |
| 20260507153101 | 15 | 158 | 32.2 | 57.9 | 0.00 | 0.00 | 0.00 | 86 | 1004.6 |
| 20260507151553 | 15 | 131 | 37.0 | 69.2 | 0.00 | 0.00 | 0.00 | 86 | 1005.0 |
| 20260507150057 | 15 | 157 | 32.2 | 57.9 | 0.00 | 0.00 | 0.00 | 86 | 1005.2 |
| 20260507144557 | 15 | 175 | 32.2 | 54.7 | 0.00 | 0.00 | 0.00 | 85 | 1005.8 |